STARLINK-32271, 60368

Orbit data source: Space-Track

STARLINK-32271, 60368 is a payload satellite owned by SpaceX/Seattle (US) in LEO that was launched on Sun, 04 Aug 2024 UTC via an FALCON 9 launch vehicle from the Air Force Western Test Range (AFWTR). Payload-class satellites include a variety of spacecraft equipped with specific instruments for various scientific and technological missions. These include communications satellites like Starlink; space stations such as the ISS; scientific satellites like the Hubble; Earth observation satellites from companies like Planet Labs, Umbra, and HawkEye 360; GPS; miniature CubeSats for education and research; and military/defense satellites.

Loading next visibility...
Identifier
60368, 2024-138P
Orbit
LEO
Country
Flag of USUS
Related business
Manufacturer
SpaceX/Seattle
Mission
Operational Commercial Communications
Bus & Motor
STARLINK V2M, Unknown motor
Mass
730 kg wet, ~700 kg dry
Launch date (UTC)
2024-08-04 (1 year ago)
Launch vehicle
FALCON 9
Launch site
Air Force Western Test Range (AFWTR)
Object type
Payload
Rocket body
Debris
Shape & HBR
Box + 2 Pan, 14.5 m
Radar Cross Section
33.884 m², Large (>1 m²)

Expand to show TLE details & history
Last TLE update: 7 hours ago

TLE from 7 hours ago
0 STARLINK-32271
1 60368U 24138P   25258.58100343 -.00002905  00000-0 -85967-4 0  9994
2 60368  53.1617  43.2534 0000888  94.8011 265.3091 15.30210606 63814
Epoch: 2025-09-15T13:56Z
TLE epoch observation values (Epoch: 2025-09-15T13:56:38.696Z)
Latitude
-0.00003°
Longitude
-160.69146°
Altitude
476.133 km
Speed
7.629 km/s
True Right ascension
02h 53m 00s
True Declination
0° 00' 00"
Sunlit
Object was in full shadow at epoch
Visualization orbit readout
Latitude
Unknown
Longitude
Unknown
Altitude
Unknown
Speed
Unknown
Apparent Right ascension
Unknown
Apparent Declination
Unknown
Sunlit
N/A
Visualization observer readout
Local Sidereal Time
13:52:23
Azimuth
Unknown
Elevation
Unknown
Doppler factor
Unknown
Orbital elements
Apogee altitude
476.048 km
Perigee altitude
474.831 km
Semi-major axis
6,853.577 km
Eccentricity
0.00009
Inclination
53.1617°
RAAN
43.2534°
Arg. of periapsis
94.8011°
True anomaly
265.29896°
Mean anomaly
265.3091°
Eccentric anomaly
265.30403°
Mean motion
3.82532 °/min
Orbital period
94.11 mins
BSTAR
-0.000085967
Loading maneuver chart data...
Computing Atmospheric mass density...
Loading historical data...
Loading historical data...
Loading historical data...
Loading historical data...
Loading historical data...
Loading historical data...
Loading historical data...

Documentation

Showing up to 5 results
|